Regional Weather Roundup
Issued by NWS

Home | Current Version | Previous Version | Text Only | Print | Product List | Glossary Off
Versions: 1 2 3 4 5 6 7 8 9 10 11 12 13 14 15 16 17 18 19 20 21 22 23 24 25 26 27 28 29 30 31 32 33 34 35 36 37 38 39 40 41 42 43 44 45 46 47 48 49 50

000
ASUS45 KCYS 011410
RWRWY

WYOMING REGIONAL WEATHER ROUNDUP
NATIONAL WEATHER SERVICE CHEYENNE WY
800 AM MDT TUE SEP 01 2015

NOTE:  "FAIR" INDICATES FEW OR NO CLOUDS BELOW 12,000 FEET
WITH NO SIGNIFICANT WEATHER AND/OR OBSTRUCTIONS TO VISIBILITY.

WYZ001-011500-
YELLOWSTONE NATIONAL PARK

CITY           SKY/WX    TMP DP  RH WIND       PRES   REMARKS
LK YELLOWSTONE   N/A     36  32  85 CALM      30.22R
W YELLOWSTONE  NOT AVBL

$$
WYZ002>013-054>058-071-098>099-011500-
NORTHERN WYOMING

CITY           SKY/WX    TMP DP  RH WIND       PRES   REMARKS
JACKSON        FAIR      41  34  75 N3        30.16R
CODY           FAIR      57  30  35 CALM      30.00R
GREYBULL       FAIR      52  33  48 CALM      29.95R
WORLAND        FAIR      56  34  43 CALM      29.96R
SHERIDAN       FAIR      60  44  55 E3        29.92S
BUFFALO        FAIR      67  36  31 CALM      29.98S
GILLETTE       FAIR      65  43  44 SW7       29.95R
HULETT         FAIR      61  48  63 CALM      29.96S
NEWCASTLE      FAIR      64  45  48 SW3       29.98S

$$
WYZ014>020-022>026-101>103-011500-
CENTRAL WYOMING

CITY           SKY/WX    TMP DP  RH WIND       PRES   REMARKS
BIG PINEY      FAIR      44  28  53 N3        30.21R
PINEDALE       FAIR      39  32  75 W5        30.21S
DUBOIS         FAIR      46  27  46 NW18      30.15S
LANDER         FAIR      54  28  36 S3        30.06S
RIVERTON       FAIR      59  35  40 CALM      30.06S
CASPER         FAIR      65  42  43 SW13      30.06S
DOUGLAS        FAIR      62  43  49 CALM      30.04S

$$
WYZ021-027>030-104>119-011500-
SOUTHERN WYOMING

CITY           SKY/WX    TMP DP  RH WIND       PRES   REMARKS
EVANSTON       PTSUNNY   58  41  53 SW5       30.20R
KEMMERER       FAIR      50  32  50 N6        30.20S
FORT BRIDGER   PTSUNNY   55  43  62 CALM      30.22R
ROCK SPRINGS   FAIR      57  42  57 SE8       30.19R
DIXON          FAIR      53  45  74 SE3       30.24S
RAWLINS        FAIR      60  42  51 NE3       30.20R
SARATOGA       FAIR      55  43  62 SE12      30.23S
LARAMIE        FAIR      51  42  71 E12       30.22S
CHEYENNE       FAIR      65  43  44 W14       30.13S
TORRINGTON     FAIR      58  48  69 NW3       30.00R
PINE BLUFFS    FAIR      55  50  82 CALM      30.10R

$$



USA.gov is the U.S. government's official web portal to all federal, state and local government web resources and services.